When you browse on this site, cookies collect data to enhance your experience and personalize the content and advertising you see.
Visit our Privacy Policy to learn more. By continuing to use the site, you agree to this use of cookies and data.
  • En Estados Unidos
  • Lista de países
  • Para 7 días
  • Temperatura del agua
  • El tiempo en el mapa
  • Informadores
  • user-avatar
    Iniciar sesión

    Tiempo cada hora Frankfort

    Hoy, 18 Enero, Sábado

    Tiempo Temperatura Precipitaciones Viento Presión Humedad
    00:00 +3°C° 0 mm 3 mps 748 mmHg 54%
    01:00 +3°C° 0.2 mm 4 mps 747 mmHg 58%
    02:00 +4°C° 0.2 mm 4 mps 746 mmHg 62%
    03:00 +3°C° 0.2 mm 5 mps 745 mmHg 66%
    04:00 +4°C° 0.3 mm 6 mps 744 mmHg 66%
    05:00 +4°C° 0.3 mm 7 mps 743 mmHg 66%
    06:00 +5°C° 0.3 mm 8 mps 742 mmHg 66%
    07:00 +5°C° 0.7 mm 9 mps 741 mmHg 73%
    08:00 +6°C° 0.7 mm 9 mps 741 mmHg 80%
    09:00 +6°C° 0.7 mm 10 mps 740 mmHg 88%
    10:00 +7°C° 2.1 mm 10 mps 739 mmHg 89%
    11:00 +7°C° 2.1 mm 10 mps 738 mmHg 90%
    12:00 +8°C° 2.1 mm 11 mps 738 mmHg 91%
    13:00 +10°C° 0.7 mm 9 mps 738 mmHg 90%
    14:00 +10°C° 0.7 mm 8 mps 737 mmHg 89%
    15:00 +11°C° 0.7 mm 7 mps 737 mmHg 88%
    16:00 +9°C° 0 mm 7 mps 738 mmHg 87%
    17:00 +5°C° 0 mm 7 mps 739 mmHg 85%
    18:00 +3°C° 0 mm 7 mps 739 mmHg 84%
    19:00 +2°C° 0 mm 7 mps 740 mmHg 83%
    20:00 -1°C° 0 mm 7 mps 740 mmHg 83%
    21:00 -3°C° 0 mm 7 mps 741 mmHg 82%
    22:00 -4°C° 0 mm 7 mps 742 mmHg 82%
    23:00 -6°C° 0 mm 7 mps 742 mmHg 81%

    Mañana, 19 Enero, Domingo

    Tiempo Temperatura Precipitaciones Viento Presión Humedad
    00:00 -7°C° 0 mm 7 mps 743 mmHg 81%
    01:00 -8°C° 0 mm 7 mps 743 mmHg 80%
    02:00 -9°C° 0 mm 7 mps 744 mmHg 79%
    03:00 -11°C° 0 mm 7 mps 744 mmHg 78%
    04:00 -10°C° 0 mm 6 mps 744 mmHg 76%
    05:00 -11°C° 0 mm 6 mps 745 mmHg 75%
    06:00 -11°C° 0 mm 6 mps 745 mmHg 73%
    07:00 -11°C° 0 mm 6 mps 746 mmHg 70%
    08:00 -11°C° 0 mm 6 mps 746 mmHg 66%
    09:00 -11°C° 0 mm 6 mps 747 mmHg 62%
    10:00 -10°C° 0 mm 6 mps 747 mmHg 58%
    11:00 -9°C° 0 mm 6 mps 747 mmHg 54%
    12:00 -8°C° 0 mm 6 mps 747 mmHg 50%
    13:00 -8°C° 0 mm 6 mps 747 mmHg 49%
    14:00 -8°C° 0 mm 6 mps 747 mmHg 48%
    15:00 -8°C° 0 mm 6 mps 747 mmHg 47%
    16:00 -7°C° 0 mm 5 mps 747 mmHg 50%
    17:00 -8°C° 0 mm 5 mps 748 mmHg 52%
    18:00 -10°C° 0 mm 5 mps 748 mmHg 55%
    19:00 -9°C° 0 mm 4 mps 749 mmHg 57%
    20:00 -10°C° 0 mm 4 mps 749 mmHg 59%
    21:00 -10°C° 0 mm 4 mps 749 mmHg 61%
    22:00 -11°C° 0 mm 4 mps 749 mmHg 62%
    23:00 -11°C° 0 mm 4 mps 749 mmHg 64%

    Pasado mañana, 20 Enero, Lunes

    Tiempo Temperatura Precipitaciones Viento Presión Humedad
    00:00 -10°C° 0 mm 3 mps 750 mmHg 65%
    01:00 -12°C° 0 mm 3 mps 750 mmHg 66%
    02:00 -12°C° 0 mm 3 mps 750 mmHg 67%
    03:00 -12°C° 0 mm 3 mps 750 mmHg 67%
    04:00 -12°C° 0 mm 3 mps 750 mmHg 68%
    05:00 -12°C° 0 mm 3 mps 751 mmHg 68%
    06:00 -13°C° 0 mm 3 mps 751 mmHg 69%
    07:00 -12°C° 0 mm 3 mps 752 mmHg 66%
    08:00 -9°C° 0 mm 2 mps 752 mmHg 64%
    09:00 -9°C° 0 mm 2 mps 752 mmHg 62%
    10:00 -7°C° 0 mm 2 mps 752 mmHg 57%
    11:00 -5°C° 0 mm 2 mps 752 mmHg 52%
    12:00 -4°C° 0 mm 2 mps 752 mmHg 48%
    13:00 -3°C° 0 mm 2 mps 752 mmHg 47%
    14:00 -3°C° 0 mm 2 mps 752 mmHg 47%
    15:00 -4°C° 0 mm 3 mps 751 mmHg 46%
    16:00 -4°C° 0 mm 2 mps 752 mmHg 52%
    17:00 -5°C° 0 mm 2 mps 752 mmHg 58%
    18:00 -6°C° 0 mm 2 mps 752 mmHg 64%
    19:00 -6°C° 0 mm 2 mps 752 mmHg 66%
    20:00 -6°C° 0 mm 2 mps 752 mmHg 69%
    21:00 -7°C° 0 mm 2 mps 752 mmHg 71%
    22:00 -7°C° 0 mm 2 mps 753 mmHg 72%
    23:00 -7°C° 0 mm 2 mps 753 mmHg 73%

    21 Enero, Martes

    Tiempo Temperatura Precipitaciones Viento Presión Humedad
    00:00 -6°C° 0 mm 1 mps 753 mmHg 74%
    01:00 -6°C° 0 mm 1 mps 753 mmHg 75%
    02:00 -7°C° 0 mm 2 mps 753 mmHg 77%
    03:00 -7°C° 0 mm 2 mps 753 mmHg 78%
    04:00 -7°C° 0 mm 1 mps 753 mmHg 80%
    05:00 -7°C° 0 mm 1 mps 753 mmHg 82%
    06:00 -7°C° 0 mm 1 mps 754 mmHg 85%
    07:00 -6°C° 0 mm 1 mps 754 mmHg 80%
    08:00 -4°C° 0 mm 1 mps 754 mmHg 75%
    09:00 -2°C° 0 mm 1 mps 755 mmHg 70%
    10:00 -3°C° 0 mm 2 mps 755 mmHg 63%
    11:00 -2°C° 0 mm 2 mps 754 mmHg 56%
    12:00 -1°C° 0 mm 2 mps 754 mmHg 49%
    13:00 +1°C° 0 mm 2 mps 753 mmHg 48%
    14:00 +1°C° 0 mm 2 mps 753 mmHg 48%
    15:00 +1°C° 0 mm 2 mps 753 mmHg 47%
    16:00 -1°C° 0 mm 2 mps 753 mmHg 53%
    17:00 -3°C° 0 mm 2 mps 753 mmHg 60%
    18:00 -2°C° 0 mm 1 mps 753 mmHg 67%
    19:00 -2°C° 0 mm 1 mps 753 mmHg 69%
    20:00 -3°C° 0 mm 1 mps 753 mmHg 71%
    21:00 -3°C° 0 mm 1 mps 753 mmHg 74%
    22:00 -3°C° 0 mm 1 mps 753 mmHg 75%
    23:00 -4°C° 0 mm 1 mps 753 mmHg 77%

    22 Enero, Miércoles

    Tiempo Temperatura Precipitaciones Viento Presión Humedad
    00:00 -4°C° 0 mm 1 mps 753 mmHg 78%
    01:00 -4°C° 0 mm 1 mps 753 mmHg 79%
    02:00 -4°C° 0 mm 1 mps 753 mmHg 80%
    03:00 -4°C° 0 mm 1 mps 753 mmHg 81%
    04:00 -4°C° 0 mm 1 mps 753 mmHg 81%
    05:00 -6°C° 0 mm 2 mps 753 mmHg 81%
    06:00 -6°C° 0 mm 2 mps 753 mmHg 81%
    07:00 -5°C° 0 mm 2 mps 753 mmHg 74%
    08:00 -4°C° 0 mm 2 mps 753 mmHg 66%
    09:00 -3°C° 0 mm 2 mps 753 mmHg 58%
    10:00 -1°C° 0 mm 2 mps 752 mmHg 50%
    11:00 +2°C° 0 mm 2 mps 752 mmHg 43%
    12:00 +3°C° 0 mm 2 mps 752 mmHg 35%
    13:00 +4°C° 0 mm 2 mps 751 mmHg 36%
    14:00 +4°C° 0 mm 2 mps 751 mmHg 37%
    15:00 +4°C° 0 mm 2 mps 750 mmHg 39%
    16:00 +3°C° 0 mm 2 mps 750 mmHg 45%
    17:00 +1°C° 0 mm 2 mps 750 mmHg 51%
    18:00 -2°C° 0 mm 2 mps 750 mmHg 58%
    19:00 -2°C° 0 mm 2 mps 750 mmHg 59%
    20:00 -3°C° 0 mm 2 mps 750 mmHg 60%
    21:00 -3°C° 0 mm 2 mps 750 mmHg 61%
    22:00 -3°C° 0 mm 2 mps 750 mmHg 62%
    23:00 -1°C° 0 mm 1 mps 750 mmHg 62%

    23 Enero, Jueves

    Tiempo Temperatura Precipitaciones Viento Presión Humedad
    00:00 -1°C° 0 mm 1 mps 750 mmHg 62%
    01:00 -1°C° 0 mm 1 mps 750 mmHg 63%
    02:00 -1°C° 0 mm 1 mps 750 mmHg 63%
    03:00 -1°C° 0 mm 1 mps 750 mmHg 64%
    04:00 -1°C° 0 mm 1 mps 750 mmHg 65%
    05:00 -3°C° 0 mm 2 mps 750 mmHg 66%
    06:00 -3°C° 0 mm 2 mps 750 mmHg 66%
    07:00 -2°C° 0 mm 2 mps 751 mmHg 62%
    08:00 -1°C° 0 mm 2 mps 751 mmHg 58%
    09:00 +2°C° 0 mm 1 mps 751 mmHg 54%
    10:00 +3°C° 0 mm 2 mps 751 mmHg 50%
    11:00 +5°C° 0 mm 2 mps 751 mmHg 47%
    12:00 +7°C° 0 mm 2 mps 750 mmHg 43%
    13:00 +7°C° 0 mm 2 mps 750 mmHg 46%
    14:00 +7°C° 0 mm 2 mps 749 mmHg 50%
    15:00 +7°C° 0 mm 2 mps 749 mmHg 53%
    16:00 +5°C° 0 mm 2 mps 749 mmHg 59%
    17:00 +4°C° 0 mm 2 mps 749 mmHg 65%
    18:00 +2°C° 0 mm 2 mps 749 mmHg 70%
    19:00 +1°C° 0 mm 3 mps 748 mmHg 71%
    20:00 0°C° 0 mm 3 mps 748 mmHg 72%
    21:00 0°C° 0 mm 3 mps 748 mmHg 73%
    22:00 +1°C° 0 mm 3 mps 748 mmHg 71%
    23:00 +1°C° 0 mm 3 mps 748 mmHg 70%
    Mostrar más